Temp
83 82 81 82 81 80 80 79 81 82 81 81 82 82 82 81 78 76 77 77 79 80 81 80 79 77 79 82 77 79 77 76 77 83 85 86 84 84 87 85 87 87 88
84 80 82 82 80 81 79 82 84 82 82 82 82 82 80 80 83 80 79 82 78 79 80 78 78 80 77 79 80 78 78 76 71 73 79 82 83 85 85 84 87 91 90
83 84 84 83 81 80 80 81 83 82 82 83 82 82 83 84 83 82 81 80 80 80 80 79 77 77 76 78 79 77 77 76 71 70 79 83 85 83 82 83 84 86 90
83 83 82 81 82 83 83 81 82 82 81 81 81 81 82 83 84 83 82 80 79 77 77 77 79 77 77 78 77 75 78 76 74 70 77 82 83 83 84 83 84 86 87
80 81 81 80 81 81 80 81 81 81 81 80 80 78 79 80 82 82 82 78 78 74 76 76 75 75 72 75 78 78 76 74 75 71 71 79 81 82 80 85 82 86 87
80 79 79 79 79 78 78 78 78 78 78 78 78 78 77 78 66 69 75 78 76 75 73 74 74 73 74 71 71 71 74 75 73 72 69 75 77 81 84 83 84 83 81
77 77 77 77 76 75 76 76 76 75 76 75 76 76 74 74 64 66 71 80 77 78 76 76 75 75 72 75 72 70 69 69 70 75 75 78 79 81 80 78 79 80 81
75 75 75 75 74 73 73 73 73 74 73 73 72 72 73 72 63 64 70 78 77 76 74 73 73 75 74 72 73 74 76 77 76 74 73 75 77 80 79 78 78 77 78
74 73 73 74 72 73 72 72 72 73 71 70 71 71 71 70 61 62 71 74 72 72 72 68 71 69 63 64 74 74 75 77 72 67 67 67 67 67 69 72 70 70 70
72 72 73 73 73 72 71 71 71 72 71 74 71 72 65 71 59 60 67 76 73 76 74 71 63 63 60 60 68 73 74 77 75 75 77 75 71 76 66 71 71 68 68
73 73 72 73 72 72 71 70 70 70 70 70 70 70 70 66 68 58 59 73 74 75 75 75 75 59 57 57 58 69 68 66 71 73 76 78 78 79 80 80 76 72 71
72 71 72 72 74 73 69 69 69 69 69 69 69 72 72 70 57 58 58 59 63 73 72 73 70 57 57 57 66 59 60 65 76 75 74 73 70 74 78 77 75 75 78
71 71 72 71 71 71 69 69 71 71 72 71 72 72 72 73 72 58 57 58 59 71 72 63 60 59 60 65 60 62 67 68 68 70 73 74 75 76 75 76 76 76 75
71 71 71 71 70 71 74 74 74 73 73 73 72 71 72 72 71 71 72 72 64 70 68 70 64 63 61 66 69 67 65 66 63 62 63 67 68 69 69 72 73 75 74
71 71 72 72 72 71 72 72 73 71 70 72 71 72 71 69 64 53 56 68 68 60 65 73 72 72 70 70 70 69 69 69 68 68 68 68 68 66 65 65 64 64 65
71 71 73 73 73 73 72 68 51 52 50 50 52 64 65 53 48 46 44 44 46 49 69 69 68 68 68 68 67 68 68 66 66 67 68 67 66 64 62 62 62 63 62
71 70 71 70 72 72 73 71 68 61 50 48 47 45 45 46 44 42 43 45 47 58 69 68 68 68 67 67 67 67 66 65 64 66 66 66 66 66 65 62 60 59 59
71 60 72 72 72 73 73 73 73 71 70 69 54 55 43 42 42 42 42 51 69 67 70 69 68 68 68 68 68 67 66 66 66 65 65 65 65 65 65 64 62 58 59
71 72 73 73 73 71 73 73 74 72 71 71 71 60 58 49 48 46 49 71 70 70 71 70 70 70 69 69 68 67 65 65 63 64 64 64 64 63 61 62 63 54 53
72 65 69 73 71 72 72 73 72 71 71 72 73 73 73 67 72 72 72 71 71 71 71 70 70 70 69 68 68 67 67 66 65 65 64 64 64 63 62 61 60 55 57
73 70 67 73 73 73 73 73 73 73 73 74 74 69 49 70 72 72 71 71 70 71 70 70 70 70 69 68 68 68 67 67 66 64 63 63 62 61 62 62 62 59 55
74 72 73 73 72 72 74 74 73 73 73 74 74 69 50 73 72 71 71 71 71 71 71 69 69 70 70 70 69 69 67 66 65 64 62 62 62 62 62 61 61 59 53
74 73 73 73 73 64 71 73 73 73 74 75 75 74 74 72 72 71 70 71 70 70 71 70 69 68 69 69 69 68 66 65 64 63 61 61 60 61 60 60 60 58 54
74 73 73 73 71 73 73 73 73 63 73 74 74 73 73 73 73 71 71 71 70 70 70 69 69 68 68 68 68 68 66 64 62 62 60 59 59 58 59 59 60 59 54
75 75 74 73 71 73 72 73 73 73 72 73 74 73 74 74 73 72 71 70 69 68 67 67 67 67 66 64 64 64 50 38 48 42 57 59 58 57 58 59 59 60 59
75 75 76 75 74 74 73 72 73 72 72 73 72 73 72 72 71 70 69 68 66 67 66 66 65 64 63 66 63 45 35 34 46 33 49 57 58 59 60 59 59 59 60
MSLP
1013.00 1013.45 1014.23 1014.67 1014.93 1015.28 1015.48 1015.74 1015.88 1015.87 1015.81 1015.97 1016.21 1016.39 1016.54 1016.77 1017.05 1017.31 1017.31 1017.29 1017.20 1017.22 1017.24 1017.33 1017.48 1017.55 1017.35 1017.23 1017.63 1017.81 1018.04 1018.35 1017.74 1017.24 1017.38 1017.42 1017.50 1017.47 1017.17 1017.60 1017.55 1017.57 1017.51
1012.26 1013.16 1013.50 1013.89 1014.52 1014.81 1014.99 1015.12 1015.38 1015.25 1015.37 1015.45 1015.49 1015.60 1015.74 1015.88 1015.94 1016.14 1016.18 1016.23 1016.54 1016.57 1016.41 1016.40 1016.31 1016.51 1016.87 1016.91 1017.03 1017.21 1017.37 1017.61 1017.80 1017.53 1017.27 1017.16 1017.24 1017.10 1017.00 1017.08 1016.90 1016.72 1016.71
1011.98 1012.56 1013.06 1013.27 1013.70 1014.12 1014.56 1014.75 1014.68 1014.76 1014.89 1014.93 1014.99 1015.07 1015.09 1015.05 1015.24 1015.31 1015.51 1015.74 1015.90 1015.93 1015.87 1015.85 1015.58 1016.12 1016.38 1016.56 1016.64 1016.92 1017.11 1017.31 1017.41 1017.14 1016.78 1016.87 1016.70 1016.82 1016.71 1016.63 1016.53 1016.37 1016.21
1011.71 1012.27 1012.64 1013.06 1013.51 1013.65 1013.87 1014.21 1014.25 1014.26 1014.33 1014.49 1014.66 1014.64 1014.57 1014.52 1014.51 1014.63 1014.71 1015.05 1015.19 1015.46 1015.66 1015.77 1015.63 1015.98 1016.16 1016.46 1016.46 1016.75 1016.61 1016.74 1016.94 1016.90 1016.54 1016.31 1016.21 1016.23 1016.19 1016.00 1015.70 1015.88 1015.53
1011.64 1012.20 1012.61 1012.93 1013.28 1013.51 1013.62 1013.76 1013.99 1014.05 1014.18 1014.38 1014.59 1014.52 1014.40 1014.36 1014.24 1014.31 1014.43 1014.52 1014.70 1014.82 1015.12 1015.35 1015.75 1015.97 1016.22 1016.39 1016.26 1016.35 1016.33 1016.31 1016.29 1016.57 1016.40 1016.16 1015.78 1015.63 1015.51 1015.17 1015.18 1014.99 1014.76
1011.69 1012.20 1012.59 1013.03 1013.22 1013.62 1013.68 1013.69 1014.07 1014.22 1014.40 1014.51 1014.59 1014.70 1014.67 1014.65 1014.70 1014.44 1014.37 1014.40 1014.59 1014.85 1015.12 1015.24 1015.37 1015.78 1016.00 1016.15 1016.17 1016.13 1016.10 1015.89 1016.00 1016.11 1015.60 1015.45 1015.32 1015.21 1014.96 1014.87 1014.66 1014.45 1014.23
1011.97 1012.46 1012.98 1013.37 1013.66 1013.92 1014.19 1014.02 1014.27 1014.63 1014.74 1014.93 1015.05 1015.13 1015.17 1015.19 1014.94 1014.55 1014.56 1014.40 1014.44 1014.63 1014.92 1014.97 1015.20 1015.52 1015.71 1015.72 1015.80 1015.72 1015.51 1015.55 1015.56 1015.48 1015.36 1014.98 1014.84 1014.84 1014.97 1014.88 1014.72 1014.49 1014.21
1012.60 1013.08 1013.59 1013.70 1013.89 1014.34 1014.41 1014.40 1014.86 1015.05 1014.98 1015.25 1015.65 1015.81 1015.81 1015.86 1015.48 1015.05 1014.83 1014.53 1014.53 1014.72 1014.93 1015.07 1015.22 1015.29 1015.52 1015.69 1015.63 1015.26 1015.05 1014.99 1014.97 1015.22 1015.20 1015.08 1014.97 1014.85 1014.82 1014.71 1014.81 1014.60 1014.40
1013.10 1013.63 1013.70 1013.89 1014.16 1014.48 1014.50 1014.76 1015.24 1015.32 1015.50 1015.91 1016.23 1016.33 1016.31 1016.40 1016.13 1015.65 1015.19 1015.16 1015.25 1015.36 1015.43 1015.58 1015.47 1015.70 1016.04 1015.92 1015.45 1015.15 1014.97 1014.72 1014.62 1015.03 1015.06 1015.02 1015.01 1014.96 1014.85 1014.92 1014.62 1014.52 1014.03
1013.62 1014.04 1014.21 1014.41 1014.48 1014.48 1014.68 1015.34 1015.73 1015.87 1016.11 1016.26 1016.62 1016.81 1017.04 1016.93 1016.79 1016.33 1016.02 1015.65 1015.57 1015.43 1015.74 1016.01 1016.26 1016.46 1016.34 1016.10 1015.95 1015.44 1015.12 1014.77 1014.90 1014.79 1014.69 1014.55 1014.54 1014.03 1014.63 1014.70 1014.47 1014.15 1013.83
1013.91 1014.36 1014.66 1014.88 1014.81 1014.70 1015.18 1015.80 1016.01 1016.30 1016.62 1016.69 1016.84 1017.16 1017.25 1017.46 1017.25 1017.05 1016.75 1016.27 1015.97 1015.82 1015.85 1015.96 1016.16 1016.58 1016.51 1016.34 1016.15 1016.01 1015.80 1015.68 1015.20 1014.83 1014.49 1014.32 1014.15 1013.99 1013.84 1013.57 1013.80 1014.03 1013.69
1013.99 1014.41 1014.69 1014.91 1014.79 1015.09 1015.67 1016.22 1016.51 1016.76 1016.86 1016.96 1017.05 1017.09 1017.38 1017.61 1017.72 1017.59 1017.43 1017.22 1016.90 1016.33 1016.40 1016.60 1016.90 1016.98 1016.86 1016.63 1016.45 1016.43 1016.08 1015.67 1015.15 1014.84 1014.74 1014.64 1014.50 1014.12 1013.76 1013.91 1013.96 1013.80 1013.30
1013.78 1014.19 1014.58 1015.07 1015.30 1015.66 1016.02 1016.40 1016.70 1016.86 1016.84 1017.00 1017.12 1017.23 1017.36 1017.60 1017.77 1017.97 1017.80 1017.59 1017.38 1017.04 1017.19 1017.48 1017.31 1017.09 1016.87 1016.71 1016.85 1016.51 1016.03 1016.17 1015.89 1015.52 1015.12 1014.94 1014.79 1014.57 1014.28 1013.77 1013.50 1013.24 1012.88
1013.65 1014.23 1014.67 1015.20 1015.63 1015.99 1016.22 1016.43 1016.62 1016.83 1017.02 1017.21 1017.39 1017.53 1017.72 1017.90 1018.16 1018.30 1018.16 1018.03 1017.96 1017.65 1017.61 1017.58 1017.63 1017.52 1017.40 1017.27 1016.97 1017.06 1017.13 1016.98 1016.90 1016.66 1016.40 1016.09 1015.97 1015.62 1015.24 1014.67 1013.92 1013.23 1012.65
1013.65 1014.26 1014.78 1015.35 1015.63 1016.05 1016.45 1016.89 1016.98 1017.50 1017.60 1017.72 1017.97 1018.03 1018.11 1018.53 1019.31 1019.66 1019.25 1018.63 1018.40 1018.47 1018.01 1017.63 1017.44 1017.32 1017.33 1017.30 1017.38 1017.58 1017.49 1017.35 1017.13 1016.97 1016.56 1016.17 1015.91 1015.80 1015.57 1015.45 1015.18 1014.65 1013.73
1013.68 1014.34 1014.86 1015.23 1015.51 1015.95 1016.66 1017.47 1017.99 1018.12 1018.38 1018.56 1018.76 1018.79 1019.39 1019.63 1019.89 1019.80 1019.53 1019.20 1018.88 1018.50 1018.08 1017.91 1017.90 1017.83 1017.82 1017.84 1017.86 1017.82 1017.88 1017.88 1017.83 1017.44 1017.03 1016.68 1016.36 1016.11 1015.92 1015.68 1015.44 1014.88 1014.12
1013.62 1014.41 1014.91 1015.07 1015.38 1015.93 1016.47 1017.06 1017.90 1018.92 1018.91 1019.00 1019.20 1019.36 1019.54 1019.75 1019.90 1019.87 1019.68 1019.41 1019.11 1018.66 1018.22 1018.13 1018.04 1017.93 1017.90 1017.95 1017.97 1017.97 1017.93 1018.06 1018.11 1017.76 1017.50 1017.00 1016.62 1016.32 1015.87 1015.57 1015.39 1015.05 1014.45
1013.74 1014.36 1014.60 1014.91 1015.32 1015.83 1016.41 1016.96 1017.42 1017.85 1018.23 1018.96 1019.44 1019.58 1019.77 1019.90 1019.99 1019.95 1019.75 1019.39 1018.85 1018.81 1018.50 1018.28 1018.15 1018.12 1018.14 1018.18 1018.21 1018.20 1018.21 1018.15 1017.87 1017.65 1017.39 1017.16 1016.68 1016.20 1015.89 1015.52 1015.37 1015.28 1014.68
1013.67 1014.15 1014.44 1014.85 1015.27 1015.95 1016.47 1016.88 1017.17 1017.53 1017.97 1018.46 1018.88 1019.42 1019.63 1019.81 1019.87 1019.76 1019.57 1018.97 1018.70 1018.44 1018.39 1018.24 1018.27 1018.19 1018.19 1018.31 1018.35 1018.35 1018.47 1018.26 1018.33 1017.86 1017.41 1017.17 1016.86 1016.45 1016.14 1015.65 1015.13 1015.15 1014.98
1013.47 1014.44 1014.59 1014.98 1015.73 1016.06 1016.39 1016.69 1017.05 1017.46 1017.81 1018.09 1018.38 1018.64 1019.06 1019.20 1018.97 1018.84 1018.73 1018.56 1018.32 1018.13 1018.13 1018.11 1018.08 1018.07 1018.06 1018.06 1018.10 1018.11 1018.07 1018.00 1017.95 1017.71 1017.46 1017.15 1016.75 1016.33 1015.82 1015.54 1015.07 1014.99 1014.53
1013.34 1014.57 1014.99 1015.13 1015.42 1015.81 1016.17 1016.56 1017.02 1017.30 1017.49 1017.74 1018.06 1018.63 1019.32 1018.93 1018.58 1018.35 1018.17 1018.07 1017.99 1017.84 1017.80 1017.83 1017.87 1017.86 1017.86 1017.80 1017.79 1017.72 1017.66 1017.64 1017.65 1017.49 1017.31 1017.13 1016.80 1016.22 1015.80 1015.33 1014.79 1014.55 1014.32
1013.13 1014.10 1014.58 1014.94 1015.44 1015.83 1016.24 1016.74 1017.17 1017.37 1017.48 1017.55 1017.84 1018.41 1018.93 1018.55 1018.33 1018.19 1018.13 1017.99 1017.98 1018.00 1017.95 1017.96 1017.81 1017.56 1017.44 1017.42 1017.37 1017.28 1017.40 1017.38 1017.35 1017.28 1017.23 1017.10 1016.70 1016.10 1015.49 1014.97 1014.48 1014.18 1014.02
1012.98 1013.56 1014.29 1014.92 1015.46 1016.16 1016.63 1016.96 1017.18 1017.27 1017.36 1017.58 1017.75 1017.96 1018.19 1018.18 1018.18 1018.18 1018.24 1018.23 1018.22 1018.10 1017.99 1017.87 1017.72 1017.60 1017.37 1017.33 1017.21 1017.22 1017.37 1017.34 1017.42 1017.46 1017.39 1017.04 1016.47 1015.77 1015.27 1014.56 1014.04 1013.73 1013.40
1013.06 1013.45 1014.14 1014.93 1015.54 1015.97 1016.44 1016.83 1017.06 1017.29 1017.33 1017.56 1017.76 1017.89 1017.93 1017.99 1017.95 1018.00 1018.11 1018.17 1018.12 1017.97 1017.85 1017.73 1017.51 1017.36 1017.27 1017.14 1017.24 1017.41 1017.50 1017.79 1017.92 1017.62 1017.45 1016.97 1016.17 1015.47 1014.89 1014.21 1013.54 1013.07 1012.89
1013.16 1013.51 1014.26 1014.98 1015.61 1015.86 1016.36 1016.64 1016.93 1017.13 1017.34 1017.42 1017.46 1017.55 1017.54 1017.63 1017.70 1017.85 1018.06 1018.18 1018.13 1018.00 1017.92 1017.75 1017.45 1017.27 1017.11 1017.27 1017.41 1017.50 1017.93 1018.39 1018.33 1018.24 1017.39 1016.63 1015.88 1015.30 1014.58 1013.80 1013.06 1012.44 1011.96
1013.32 1013.70 1014.14 1014.65 1015.31 1015.73 1016.05 1016.38 1016.62 1016.86 1017.00 1017.08 1017.18 1017.21 1017.31 1017.41 1017.65 1017.96 1018.09 1018.18 1018.21 1018.00 1017.83 1017.53 1017.45 1017.37 1017.31 1017.15 1017.40 1018.06 1018.11 1018.06 1017.87 1017.97 1017.45 1016.28 1015.34 1014.56 1013.90 1013.24 1012.52 1011.90 1011.25
Wind_Speed
14 14 12 12 13 12 10 9 10 8 6 7 8 9 8 10 10 10 10 9 9 8 8 9 10 9 8 8 6 6 7 7 9 9 5 3 4 6 5 8 9 10 9
13 12 13 13 9 11 10 11 9 7 6 8 9 8 8 8 8 10 9 8 9 10 11 11 13 9 10 9 7 9 8 10 5 10 7 6 7 6 7 8 8 8 9
10 11 11 11 11 10 10 10 8 8 7 7 7 8 9 9 8 8 7 7 8 10 10 12 11 9 8 6 6 6 6 7 7 5 11 7 7 5 5 7 7 9 9
10 10 10 9 9 8 7 7 7 5 5 5 5 7 8 9 8 9 8 7 8 7 9 11 10 7 6 7 6 5 5 7 9 7 10 9 8 7 7 7 8 7 8
9 9 8 6 6 5 5 5 5 4 2 2 0 3 4 3 3 7 8 7 10 7 8 9 6 3 3 5 4 6 5 6 7 6 5 9 9 8 9 7 8 8 7
8 6 5 5 6 6 6 7 6 6 5 4 5 5 5 4 10 5 5 6 6 6 7 8 6 3 3 6 9 10 7 5 5 5 4 10 11 9 8 8 8 8 9
11 9 9 9 9 8 7 8 8 7 7 6 6 6 7 7 12 9 2 0 2 3 4 4 4 3 5 6 6 5 7 10 12 8 10 10 9 7 7 8 9 8 8
10 9 7 8 8 7 7 8 6 5 7 6 8 7 7 9 13 12 6 4 3 3 3 2 4 5 4 6 6 5 6 6 6 6 9 10 11 10 9 9 9 9 8
9 7 7 7 8 7 8 7 5 6 8 8 7 7 8 9 14 14 7 4 5 4 5 7 3 6 8 9 5 4 4 4 3 7 9 9 10 11 8 5 7 6 6
8 6 6 6 7 9 9 9 8 8 8 6 7 6 7 8 14 13 10 5 6 4 4 5 12 7 8 7 4 5 5 5 6 8 6 5 5 5 8 8 5 6 5
9 9 8 7 8 10 10 7 7 7 6 6 7 6 7 8 8 11 12 6 5 4 4 4 5 10 7 4 3 3 4 7 7 7 6 5 5 4 4 3 4 6 8
11 10 8 7 8 9 10 7 7 7 8 7 7 6 6 6 11 11 11 10 7 6 7 7 8 8 8 12 7 5 2 4 3 4 4 4 4 6 7 7 8 9 10
12 10 9 9 8 8 10 9 7 6 6 6 5 5 6 6 6 8 11 12 12 7 7 7 5 9 8 9 13 14 9 8 6 5 6 7 8 7 8 6 7 8 8
12 10 9 9 9 8 7 6 6 6 5 5 4 5 5 6 7 6 5 5 5 4 3 6 5 6 8 7 8 10 8 8 7 7 7 7 7 9 9 10 10 9 10
11 10 9 9 9 9 7 5 5 5 5 5 5 5 5 6 6 5 6 5 5 4 4 4 5 5 6 7 7 8 8 8 8 7 6 7 6 7 7 7 8 9 9
12 9 8 8 9 8 8 8 13 9 8 10 8 7 6 7 5 5 6 6 5 3 5 6 6 6 7 7 7 7 7 9 8 8 8 8 7 7 8 8 8 8 9
11 10 8 8 8 8 8 9 10 6 10 10 9 9 10 8 3 2 4 6 7 2 6 6 5 5 5 4 4 5 5 5 5 6 7 8 8 9 8 7 8 8 9
11 9 8 8 9 8 8 9 8 8 7 6 5 4 7 6 3 2 3 5 4 4 4 5 4 4 4 4 4 4 5 5 5 6 6 7 8 8 9 9 8 10 10
11 9 9 9 9 9 8 8 7 7 6 5 4 4 3 3 3 2 3 3 4 4 3 3 3 4 4 4 4 4 5 6 6 7 6 7 7 7 8 9 9 8 10
11 11 9 9 8 8 7 7 6 5 5 4 3 1 1 2 2 2 1 2 4 4 3 4 4 4 4 5 5 5 6 6 6 6 7 7 8 7 8 9 9 9 10
11 10 10 9 8 7 7 8 6 5 4 2 2 3 3 4 2 3 4 4 5 6 5 5 5 5 5 5 5 6 6 6 6 6 7 8 9 9 9 10 10 9 9
12 10 9 9 8 8 7 7 5 5 4 3 3 4 2 3 3 4 4 4 6 6 5 5 6 7 6 7 6 6 6 6 6 7 8 9 9 9 9 10 11 10 9
12 12 10 9 8 8 7 6 5 5 4 3 3 3 1 3 4 3 4 5 5 6 6 7 7 7 6 6 5 5 5 6 6 7 9 10 10 10 10 11 11 11 10
12 12 11 10 8 8 7 6 5 3 3 3 2 1 1 2 3 3 4 4 5 7 8 8 8 9 8 5 3 3 3 5 6 8 10 10 10 11 11 12 12 13 9
11 11 11 9 8 8 7 6 6 5 5 4 2 1 1 1 2 3 4 5 6 8 9 8 7 8 7 4 5 6 6 2 7 7 8 11 13 15 13 11 13 13 14
10 11 9 8 7 7 6 5 5 6 6 5 4 3 3 3 3 3 4 5 6 7 7 5 6 5 4 3 4 7 6 6 8 5 8 10 11 11 11 13 17 12 15
Wind_Direction
221 224 228 231 225 227 237 237 244 252 254 270 263 254 242 231 220 220 224 239 233 234 222 221 233 226 227 222 211 213 211 223 243 259 266 269 251 246 238 224 236 226 225
218 215 220 231 225 229 228 235 235 254 268 270 278 260 253 245 232 220 227 229 230 230 224 214 224 220 224 224 213 215 218 207 194 256 253 253 243 239 240 224 232 232 230
210 216 225 225 217 221 229 236 250 260 270 272 270 269 262 256 252 245 249 252 242 239 233 228 227 207 214 219 220 222 225 223 208 207 263 243 260 250 239 235 229 239 243
205 212 216 221 226 229 236 244 251 258 273 287 280 273 273 265 255 251 232 225 235 236 240 239 240 205 227 220 195 224 235 226 221 215 240 251 253 248 251 258 245 230 251
182 197 206 213 228 229 229 243 253 246 241 206 291 39 20 297 286 260 239 221 224 228 239 243 231 275 154 206 214 252 255 248 224 206 220 252 253 238 237 237 246 257 246
156 159 137 146 137 133 122 118 114 111 104 90 69 62 50 35 339 341 245 200 212 220 238 244 247 226 207 219 242 248 244 245 251 223 215 240 246 244 251 247 250 250 258
126 121 123 124 119 114 117 107 101 96 88 68 60 56 46 14 357 4 63 228 200 232 248 277 282 261 281 293 243 245 238 236 241 250 251 250 262 261 265 262 249 247 258
118 120 128 124 110 105 100 89 90 88 84 75 63 55 54 35 13 19 6 31 32 18 347 290 272 298 336 310 300 281 261 253 237 230 244 258 261 259 262 265 266 268 268
117 125 120 118 121 119 97 88 86 97 93 87 76 61 52 38 12 16 16 43 47 49 45 32 344 55 29 4 283 313 307 304 186 246 268 283 280 278 267 281 249 235 252
128 127 125 129 124 110 99 98 95 99 101 95 82 65 52 45 25 20 13 40 54 50 70 70 61 41 10 13 358 343 319 341 348 336 321 296 257 271 220 241 259 252 251
137 138 135 132 120 110 102 98 98 94 96 90 84 70 54 35 41 25 14 47 32 42 36 28 27 10 9 356 328 330 309 325 315 319 318 320 320 321 320 306 273 265 274
144 141 134 120 120 114 110 106 105 112 106 99 91 82 69 51 29 38 34 41 9 50 45 50 55 22 49 36 51 19 305 259 2 354 347 352 345 327 342 332 317 300 285
140 136 128 123 117 120 121 121 122 118 107 95 84 73 61 52 51 53 45 34 39 59 52 43 21 28 38 62 39 18 26 32 22 12 358 6 356 345 323 327 329 313 300
140 141 134 139 133 126 129 124 117 110 104 94 83 70 65 56 41 30 42 56 60 68 63 59 59 67 64 44 32 41 30 26 26 14 0 353 353 354 345 348 330 334 321
142 140 140 144 143 125 96 79 100 69 49 92 80 65 68 66 50 24 16 37 29 44 320 47 41 37 40 34 38 30 25 22 17 8 357 352 348 344 340 344 334 328 326
143 145 147 143 144 135 127 104 51 64 78 73 50 73 87 80 109 70 67 66 57 351 70 62 58 55 53 48 38 29 28 19 11 1 357 352 348 337 339 336 333 329 321
145 146 147 146 146 144 142 135 125 89 78 73 76 75 63 106 118 80 56 58 34 320 70 68 68 64 66 62 45 32 23 23 353 358 350 347 340 334 332 332 333 326 323
143 136 149 149 151 146 146 144 139 138 132 130 83 85 118 121 106 40 312 238 78 62 45 45 43 35 27 13 9 7 6 358 359 351 345 342 339 334 325 327 324 320 319
144 146 143 143 147 142 143 144 138 133 131 137 155 186 163 183 205 211 293 1 12 23 24 9 359 349 346 328 329 332 336 348 335 335 337 335 332 330 330 323 320 316 304
139 134 139 143 148 154 155 157 145 141 147 149 167 150 164 232 256 274 290 323 308 314 319 316 327 328 323 312 310 305 305 327 333 331 334 330 326 323 318 313 319 309 309
141 146 139 144 147 151 151 147 146 146 137 109 64 74 4 290 332 356 342 346 335 328 304 298 305 302 298 293 293 287 298 314 326 331 328 325 323 318 317 312 307 307 299
147 147 146 138 135 139 134 134 143 142 132 97 92 103 139 275 339 347 355 0 4 350 329 307 299 305 308 300 293 299 290 311 325 332 325 316 312 310 312 308 305 302 296
147 146 142 136 131 121 142 151 159 160 146 103 60 59 28 3 357 4 7 8 356 345 342 324 309 300 302 294 291 294 303 321 328 323 310 309 308 311 315 305 305 299 298
147 147 147 146 150 158 161 169 170 171 170 150 118 97 37 4 7 23 347 348 338 337 335 326 313 305 307 294 287 285 301 328 325 307 307 302 304 310 310 304 303 301 299
154 149 154 154 160 172 164 179 182 183 192 193 182 188 243 307 328 340 337 335 336 333 332 327 324 323 317 311 310 315 31 322 292 314 292 299 300 302 295 298 303 303 298
160 160 161 160 168 176 181 189 200 204 206 209 213 225 247 268 291 289 315 327 322 321 327 340 356 7 350 318 356 357 328 314 314 305 297 295 299 301 304 304 303 301 300